Location: Cuzcurrita-R�o Tir�n
(42.5415°N, 2.9642°W)
Time: 20:31:54
(UTC+00:00)

Feng Yun 1-1 Rocket - Pass Details

Date: 17 January 2021
Orbit: 830 x 933 km, 99.2° (Epoch: 02 March)

Event Time Altitude Azimuth Distance (km) Brightness Sun altitude
Rises 17:58:48 0° 153° (SSE) 3,360 7.2 -9.7°
Reaches altitude 10° 18:01:09 10° 150° (SSE) 2,434 6.5 -10.1°
Maximum altitude 18:06:26 61° 71° (ENE) 954 4.2 -11.0°
Drops below altitude 10° 18:11:50 10° 353° (N) 2,489 6.6 -11.9°
Sets 18:14:16 0° 350° (N) 3,443 7.3 -12.4°
